Погода в Краснодарском

Россия / Алтайский край     52°06′58″N   83°47′41″E
темп.,
°C
ветер,
м/с
пор.,
м/с
влажн.,
%
обл.,
%
осадки,
мм/ч
давл.,
гПа
погр.,
м
2 августа, пн
пн201:00+18ююв345636 0.0 100845
04:00+16ю33635 0.0 100832
07:00+18ююв335964 0.0 100850
10:00+27ю23359 0.0 1007470
13:00+29зюз683097 0.0 10061736
16:00+32зюз89255 0.0 10053399
19:00+28ссз673460 0.0 1005773
22:00+21ююв33571 0.1 100629
3 августа, вт
вт301:00+16с489022 0.7 1008167
04:00+16ююв468977 0.3 100674
07:00+17юз3480100 0.3 100766
10:00+22з346816 0.1 1009572
13:00+27з463613 0.7 10082278
16:00+26сз1094763 0.0 10081313
19:00+22юз126072 0.1 100842
22:00+18ююв1177100 0.0 100911
4 августа, ср
ср401:00+17юз117856 0.0 100911
04:00+16юз2281100 0.0 100821
07:00+16юз228169 0.3 100928
10:00+21зсз2264100 0.4 1009481
13:00+24з2243100 0.4 10081085
16:00+26з353539 0.0 10061816
19:00+21всв01560 0.1 1007292
22:00+17вюв337472 0.0 100745
5 августа, чт
чт501:00+14ю228634 0.1 100514
04:00+14юз339489 2.3 100563
07:00+14юз399378 6.6 1006262
10:00+19зюз68729 0.1 1006733
13:00+21з675953 1.5 10061555
16:00+22зсз565364 0.6 10061634
19:00+19з478143 3.2 1006500
22:00+14зюз359497 1.0 100889
6 августа, пт
пт601:00+13юз369394 1.0 1008119
04:00+14юз3795100 1.7 1008216
07:00+14юз4894100 4.1 1008246
10:00+17зюз6884100 1.7 1009668
13:00+20зюз4473100 3.4 1009830
16:00+21з3466100 1.9 1009855
19:00+21зюз237295 3.6 1009436
22:00+16ююз348563 0.1 101051